Skip Page Navigation
NASA JPL Caltech
NASA Logo - Jet Propulsion Laboratory + View the NASA Portal
+ Center for Near-Earth Object Studies
JPL Home Earth Solar System Stars & Galaxies Technology
JPL Solar System Dynamics
BODIES ORBITS EPHEMERIDES TOOLS PHYSICAL DATA DISCOVERY FAQ SITE MAP
IMPORTANT: The SSD Announcement email list is now available. Major changes are coming in the near future, including possible hostname and/or URL changes. To be notified of such changes, subscribe to this email list.

Please visit this page for more details.


JPL Small-Body Database Browser
Search: [ help ]  
523477 (2017 FQ162)
Classification: Main-belt Asteroid          SPK-ID: 2523477
Ephemeris | Orbit Diagram | Orbital Elements | Mission Design | Physical Parameters | Discovery Circumstances | Close-Approach Data ]

[ show orbit diagram ]
Orbital Elements at Epoch 2458600.5 (2019-Apr-27.0) TDB
Reference: JPL 5 (heliocentric ecliptic J2000)
 Element Value Uncertainty (1-sigma)   Units 
e .09261827466103825 6.211e-08  
a 3.191726737532081 6.7972e-08 au
q 2.896114513912355 2.0106e-07 au
i 7.902170318668551 7.585e-06 deg
node 144.4915998176001 5.2377e-05 deg
peri 161.3722378546084 7.02e-05 deg
M 54.57524446332274 4.3563e-05 deg
tp 2458284.759590047765
(2018-Jun-15.25959005)
0.00025517 TDB
period 2082.749215336893
5.70
6.6532e-05
1.822e-07
d
yr
n .1728484626708975 5.5216e-09 deg/d
Q 3.487338961151806 7.4268e-08 au
  Orbit Determination Parameters
   # obs. used (total)      102  
   data-arc span      5760 days (15.77 yr)  
   first obs. used      2004-01-18  
   last obs. used      2019-10-26  
   planetary ephem.      DE431  
   SB-pert. ephem.      SB431-N16  
   condition code      0  
   norm. resid. RMS      .51975  
   source      ORB  
   producer      Otto Matic  
   solution date      2019-Nov-08 20:13:00  

Additional Information
 Earth MOID = 1.88188 au 
 Jupiter MOID = 1.77388 au 
 T_jup = 3.175 
[ show covariance matrix ]

Ephemeris | Orbit Diagram | Orbital Elements | Mission Design | Physical Parameters | Discovery Circumstances | Close-Approach Data ]

Physical Parameter Table
Parameter Symbol Value Units Sigma Reference Notes
absolute magnitude H 16.1   n/a MPO448248  

523477 (2017 FQ162)          Discovered 2011-Mar-29 by Mt. Lemmon Survey at Mount Lemmon
Reference: Last Updated: 2018-05-31

[ show close-approach data ]
Ephemeris | Orbit Diagram | Orbital Elements | Mission Design | Physical Parameters | Discovery Circumstances | Close-Approach Data ]
ABOUT SSD CREDITS/AWARDS PRIVACY/COPYRIGHT GLOSSARY LINKS
FirstGov 2020-Jan-28 16:45 UT
(server date/time)  
NASA Home Page
Site Manager:   Ryan S. Park
Webmaster  Alan B. Chamberlin